Location: ??????
(36.0418°N, 43.6351°E)
Time: 01:54:21
(UTC+00:00)

ATLAS 2AS CENTAUR R/B - Pass Details

Date: 07 March 2021
Orbit: 949 x 1263 km, 63.7° (Epoch: 20 April)

Event Time Altitude Azimuth Distance (km) Brightness Sun altitude
Rises 02:15:51 0° 210° (SSW) 4,150 5.4 -15.3°
Reaches altitude 10° 02:18:35 10° 211° (SSW) 3,209 4.9 -14.8°
Maximum altitude 02:26:27 87° 299° (WNW) 1,268 3.0 -13.2°
Drops below altitude 10° 02:34:21 10° 31° (NNE) 3,226 5.7 -11.6°
Sets 02:37:07 0° 32° (NNE) 4,174 6.3 -11.0°
